Content
SEND FEEDBACK

Daily
Averages
Monthly
Summary
United States of America

ASHEVILLE, NORTH CAROLINA


Home > North America > United States > North Carolina
Elevation: 2240 feet     Latitude: 35 36N     Longitude: 082 32W

WEATHER
 
SELECT A DAY
Number of Records: 225,611;   Date Range: 1/1/95 - 7/22/14
 
SHARE

PRINT THIS DATA

[ ← Previous Day ]
WEATHER ALMANAC - OCTOBER 8, 2013
[ Next Day → ]
[ °C ]   °F
We're sorry. There is no daily almanac available for Asheville, North Carolina on October 8, 2013.
WEATHER BY HOUR - OCTOBER 8, 2013
[ °C ]   °F
Local TimeTemperatureDewpointHumidityBarometerVisibilityWind DirectionWind SpeedGust SpeedPrecipitationEventsConditions
1:54 AM53.1 °F46.9 °F80 %30.05 in10.0 miNorth (360°)8.1 mphClear
2:54 AM51.1 °F46.9 °F86 %30.05 in10.0 miNorth (350°)6.9 mphScattered Clouds
3:54 AM51.1 °F46.9 °F86 %30.04 in10.0 miNorth (10°)9.2 mphClear
4:54 AM50.0 °F46.0 °F86 %30.05 in10.0 miNorth (360°)8.1 mphClear
5:54 AM50.0 °F46.0 °F86 %30.07 in10.0 miNorth (360°)6.9 mphClear
6:54 AM48.9 °F45.0 °F86 %30.11 in10.0 miNorth (10°)6.9 mphClear
7:54 AM48.9 °F45.0 °F86 %30.14 in10.0 miNNE (20°)3.5 mphScattered Clouds
8:54 AM52.0 °F46.9 °F83 %30.16 in10.0 miCalmScattered Clouds
9:54 AM53.1 °F46.9 °F80 %30.18 in10.0 miCalmClear
10:54 AM57.0 °F45.0 °F64 %30.17 in10.0 miCalmClear
11:54 AM60.1 °F42.1 °F51 %30.18 in10.0 miNNE (30°)3.5 mphClear
12:54 PM62.1 °F44.1 °F52 %30.17 in10.0 miNorth (360°)3.5 mphClear
1:54 PM64.0 °F45.0 °F50 %30.14 in10.0 miCalmClear
2:54 PM63.0 °F46.0 °F54 %30.13 in10.0 miCalmClear
3:54 PM64.9 °F46.9 °F52 %30.13 in10.0 miCalmClear
4:54 PM66.0 °F46.9 °F50 %30.14 in10.0 miCalmClear
5:54 PM64.9 °F46.9 °F52 %30.15 in10.0 miEast (100°)4.6 mphClear
6:54 PM61.0 °F48.0 °F62 %30.16 in10.0 miCalmClear
7:54 PM55.9 °F50.0 °F80 %30.18 in10.0 miCalmClear
8:54 PM54.0 °F51.1 °F90 %30.20 in10.0 miCalmMostly Cloudy
9:04 PM55.4 °F51.8 °F88 %30.23 in10.0 miCalmOvercast
9:25 PM55.4 °F51.8 °F88 %30.24 in10.0 miCalmOvercast
9:54 PM55.0 °F51.1 °F86 %30.22 in10.0 miCalmOvercast
10:54 PM55.0 °F51.1 °F86 %30.22 in10.0 miCalm
11:54 PM52.0 °F48.9 °F89 %30.21 in10.0 miNNW (330°)3.5 mph
Hourly data recorded from KAVL, located miles away from Asheville, North Carolina







STORIES FROM OUR PARTNERS